Total_Precipitation_Accumulation
0.15 0.17 0.22 0.19 0.21 0.24 0.30 0.45 0.64 0.47 0.14 0.03 0.05 0.08 0.14 0.15 0.17 0.16 0.14 0.14 0.19 0.26 0.34 0.37 0.36 0.45 0.67 1.19 2.11 3.41 4.07 3.46 2.54 2.15 2.03 2.20 2.51 2.93
0.19 0.23 0.25 0.25 0.25 0.26 0.32 0.36 0.51 0.64 0.40 0.08 0.05 0.08 0.19 0.20 0.18 0.16 0.15 0.17 0.17 0.19 0.23 0.29 0.35 0.42 0.54 0.77 1.26 2.08 3.29 3.95 3.54 2.84 2.41 2.43 2.61 2.90
0.22 0.26 0.27 0.29 0.32 0.29 0.32 0.36 0.38 0.46 0.45 0.14 0.05 0.06 0.16 0.23 0.21 0.16 0.15 0.17 0.15 0.16 0.20 0.27 0.36 0.45 0.57 0.71 0.94 1.38 2.11 3.11 3.75 3.56 3.05 2.73 2.64 2.70
0.24 0.28 0.30 0.29 0.30 0.28 0.31 0.34 0.31 0.30 0.36 0.23 0.08 0.07 0.12 0.19 0.27 0.28 0.22 0.20 0.19 0.19 0.22 0.31 0.41 0.47 0.54 0.68 0.86 1.13 1.52 2.09 2.85 3.34 3.29 2.98 2.72 2.70
0.26 0.30 0.30 0.30 0.30 0.27 0.32 0.32 0.27 0.24 0.29 0.32 0.16 0.09 0.13 0.15 0.27 0.37 0.32 0.28 0.24 0.23 0.24 0.27 0.34 0.44 0.49 0.58 0.74 0.94 1.14 1.38 1.82 2.60 3.15 3.09 2.90 2.77
0.20 0.19 0.26 0.36 0.36 0.35 0.38 0.33 0.30 0.33 0.37 0.43 0.32 0.20 0.20 0.21 0.32 0.44 0.47 0.43 0.35 0.28 0.27 0.26 0.31 0.44 0.47 0.45 0.46 0.56 0.76 1.08 1.43 1.89 2.56 2.97 2.88 2.75
0.13 0.12 0.21 0.35 0.41 0.56 0.67 0.59 0.58 0.67 0.66 0.67 0.59 0.47 0.41 0.42 0.46 0.46 0.61 0.59 0.50 0.41 0.34 0.28 0.28 0.28 0.30 0.31 0.33 0.41 0.53 0.73 1.07 1.46 1.91 2.40 2.75 2.80
0.14 0.10 0.14 0.26 0.31 0.40 0.56 0.67 0.77 0.92 0.97 0.97 0.92 0.81 0.59 0.51 0.51 0.60 0.68 0.81 0.78 0.55 0.50 0.38 0.34 0.37 0.32 0.29 0.33 0.38 0.49 0.63 0.89 1.22 1.56 1.88 2.29 2.68
0.12 0.10 0.12 0.20 0.28 0.35 0.41 0.46 0.52 0.68 0.91 1.04 1.09 0.80 0.62 0.54 0.66 0.82 0.81 0.89 0.85 0.76 0.85 0.71 0.46 0.44 0.40 0.44 0.51 0.47 0.50 0.59 0.75 0.99 1.28 1.56 1.85 2.20
0.08 0.09 0.10 0.14 0.27 0.48 0.50 0.45 0.40 0.47 0.69 0.91 1.12 0.97 0.78 0.78 1.01 1.27 1.34 1.23 0.91 0.78 0.95 1.03 0.66 0.54 0.55 0.59 0.60 0.53 0.51 0.54 0.63 0.82 1.06 1.28 1.53 1.81
0.07 0.07 0.10 0.14 0.29 0.55 0.58 0.47 0.34 0.33 0.42 0.69 0.98 1.12 1.10 1.15 1.32 1.65 1.78 1.62 1.22 0.82 0.87 1.09 0.95 0.79 0.81 0.86 0.78 0.65 0.54 0.54 0.60 0.70 0.85 0.99 1.22 1.55
0.09 0.08 0.14 0.26 0.40 0.56 0.54 0.52 0.60 0.46 0.39 0.41 0.47 0.59 0.70 0.79 1.03 1.36 1.60 1.63 1.35 1.19 0.99 1.07 1.19 1.17 1.28 1.14 0.99 0.75 0.56 0.55 0.58 0.63 0.67 0.74 0.93 1.11
0.18 0.14 0.12 0.28 0.40 0.50 0.58 0.59 0.78 0.72 0.55 0.53 0.48 0.45 0.46 0.56 0.73 1.04 1.39 1.60 1.55 1.33 1.08 1.29 1.56 1.38 1.38 1.24 1.10 1.00 0.71 0.54 0.53 0.61 0.65 0.65 0.74 0.82
0.20 0.14 0.14 0.28 0.39 0.49 0.50 0.56 0.63 0.61 0.53 0.46 0.39 0.37 0.41 0.48 0.57 0.76 1.08 1.29 1.33 1.21 1.02 1.29 1.79 1.58 1.40 1.17 1.06 1.14 0.99 0.73 0.59 0.59 0.62 0.77 0.79 0.78
0.21 0.23 0.29 0.35 0.36 0.28 0.27 0.38 0.42 0.42 0.52 0.51 0.41 0.35 0.39 0.50 0.55 0.60 0.76 1.04 1.19 1.17 1.13 1.20 1.55 1.64 1.57 1.32 1.03 1.08 1.15 1.04 0.79 0.71 0.69 0.68 0.63 0.61
0.32 0.30 0.33 0.30 0.23 0.17 0.16 0.18 0.21 0.31 0.48 0.55 0.44 0.33 0.32 0.39 0.51 0.64 0.74 0.91 1.14 1.18 1.19 1.27 1.52 1.83 1.74 1.32 1.13 1.05 1.02 1.16 1.05 0.89 0.80 0.73 0.62 0.47
0.48 0.51 0.38 0.28 0.25 0.21 0.15 0.12 0.14 0.21 0.29 0.33 0.37 0.37 0.35 0.37 0.44 0.56 0.78 0.93 1.09 1.15 1.25 1.42 1.58 1.77 1.82 1.74 1.55 1.19 0.98 0.94 1.01 1.00 0.95 0.92 0.82 0.61
0.53 0.54 0.35 0.24 0.22 0.21 0.21 0.18 0.14 0.15 0.19 0.25 0.31 0.36 0.40 0.43 0.45 0.49 0.65 0.87 1.03 1.09 1.18 1.33 1.53 1.73 1.88 1.98 1.79 1.40 1.09 0.95 1.02 1.11 1.06 1.03 1.01 0.83
0.40 0.31 0.22 0.20 0.20 0.20 0.21 0.20 0.18 0.14 0.18 0.23 0.26 0.30 0.36 0.41 0.43 0.46 0.53 0.69 0.88 1.02 1.13 1.23 1.39 1.58 1.71 1.86 1.96 1.63 1.30 1.06 1.06 1.26 1.27 1.11 0.99 0.90
0.25 0.25 0.23 0.21 0.21 0.22 0.22 0.22 0.20 0.18 0.19 0.20 0.22 0.24 0.30 0.38 0.40 0.41 0.47 0.61 0.77 0.91 1.01 1.11 1.30 1.48 1.60 1.56 1.66 1.72 1.62 1.32 1.13 1.27 1.39 1.31 1.20 1.14
0.21 0.21 0.20 0.22 0.23 0.23 0.23 0.22 0.21 0.21 0.18 0.20 0.20 0.21 0.23 0.30 0.34 0.34 0.40 0.50 0.66 0.80 0.89 0.93 1.08 1.27 1.48 1.50 1.42 1.42 1.62 1.65 1.33 1.26 1.37 1.44 1.42 1.34
0.19 0.21 0.20 0.21 0.23 0.25 0.24 0.23 0.23 0.20 0.18 0.18 0.17 0.17 0.18 0.23 0.27 0.29 0.35 0.43 0.51 0.64 0.77 0.85 0.96 1.18 1.46 1.61 1.52 1.40 1.49 1.67 1.69 1.51 1.41 1.39 1.43 1.34
0.25 0.26 0.23 0.22 0.22 0.23 0.25 0.24 0.23 0.19 0.17 0.17 0.16 0.15 0.16 0.19 0.20 0.24 0.29 0.35 0.43 0.52 0.63 0.79 0.93 1.09 1.31 1.51 1.61 1.53 1.43 1.47 1.56 1.61 1.72 1.54 1.16 0.92